Theta_e
349 348 343 333 328 328 329 331 330 321 317 330 335 332 327 325 330 331 328 326 326 326 330 332 331 330 331 336 340 342 343 343 343 343 343 343 343 343 343 343 343 343 344 343 342 342 342 341 341 340 340 339 338 337 336 334 330 326 325 324 323 326 331 334 335 333 333 333 331 330 330 332 332 332 332 332 332 332 331 331 332 333 332 332 331
349 347 342 332 329 329 329 331 330 322 316 327 334 335 333 330 329 328 327 325 325 327 331 334 334 335 337 340 342 342 343 343 343 342 342 342 342 343 343 343 343 343 343 343 342 342 341 341 341 340 340 339 338 336 334 332 330 328 327 326 323 322 327 331 332 331 331 331 331 331 331 332 332 332 332 332 331 330 329 330 331 332 332 331 331
348 347 342 332 329 329 329 332 330 323 317 324 333 337 336 334 331 329 329 326 328 332 335 336 337 338 339 342 342 343 342 342 342 342 342 342 342 342 343 343 343 342 342 342 341 341 341 340 340 340 340 339 338 335 333 333 332 331 330 327 323 321 325 330 330 330 331 331 331 332 332 333 333 333 332 330 330 330 330 330 330 331 331 331 331
348 347 343 335 331 329 330 332 331 325 317 320 332 337 336 336 337 337 337 335 335 335 337 338 339 340 341 342 342 342 341 342 342 342 342 342 342 342 343 343 342 342 341 341 341 340 340 340 339 340 339 338 338 336 334 334 334 333 331 328 324 321 323 328 329 330 331 331 330 330 331 331 332 331 330 330 330 330 331 331 331 331 331 332 331
348 347 343 338 334 330 330 332 332 326 318 319 331 338 337 337 339 339 340 340 340 340 340 340 341 341 342 342 341 342 341 342 342 342 342 342 342 343 343 342 342 341 341 341 340 339 340 340 340 339 338 338 337 336 336 336 335 333 331 329 325 322 324 324 325 328 328 327 329 330 330 330 330 330 330 330 331 330 331 331 331 331 332 333 331
348 346 342 340 338 333 330 333 332 327 320 317 328 337 337 338 339 340 340 341 342 342 342 341 342 342 342 342 341 342 342 342 342 342 342 343 343 343 343 342 342 341 341 341 340 339 339 340 339 338 338 338 337 336 336 336 336 334 333 331 327 323 323 323 324 325 325 326 329 330 330 330 330 331 331 331 331 330 330 331 331 331 331 331 331
347 345 342 340 341 335 331 333 332 327 322 318 327 336 337 338 339 339 340 341 342 342 342 342 342 342 342 342 342 342 342 342 342 342 343 343 343 343 343 342 342 342 342 341 340 339 340 339 338 337 337 336 335 334 334 334 334 333 333 332 329 325 323 326 328 328 329 330 331 331 331 331 331 331 331 331 331 329 330 330 330 330 330 330 330
346 345 342 341 342 338 332 332 332 328 323 320 326 333 337 338 339 339 339 341 342 342 342 342 342 342 342 342 342 342 342 342 342 342 342 343 343 343 342 342 342 342 342 340 340 340 340 338 336 336 335 333 331 330 329 329 330 331 331 333 332 327 324 328 330 330 332 333 333 333 333 333 333 333 333 332 330 330 331 330 330 331 331 331 330
346 344 342 342 342 339 335 332 332 329 324 322 323 330 337 338 338 339 339 340 341 342 342 342 342 342 342 342 342 342 342 342 342 342 342 342 342 343 342 342 342 341 341 340 340 339 339 337 335 334 332 329 327 327 328 329 330 331 331 333 333 328 325 328 330 332 333 334 334 334 335 335 335 334 333 330 329 331 332 332 332 332 333 332 332
346 344 342 342 342 339 337 333 332 329 325 325 323 328 336 338 337 338 338 340 341 342 342 342 343 342 342 342 342 342 342 341 342 342 342 342 341 341 341 340 340 340 340 340 340 339 337 335 331 329 328 327 326 328 330 331 332 332 332 333 333 328 326 328 331 333 333 334 335 335 335 335 335 334 332 329 329 331 331 332 332 332 332 332 332
345 344 342 343 342 339 337 334 332 330 327 327 325 327 333 337 338 338 339 340 341 341 342 342 342 343 342 342 342 342 342 342 341 341 341 341 340 340 340 340 339 338 337 337 337 336 335 333 330 326 325 326 328 330 331 332 332 332 332 332 332 328 327 328 332 333 333 333 335 335 334 334 335 333 331 329 329 330 331 330 330 330 330 330 330
344 344 342 343 342 338 337 335 333 331 330 328 325 326 331 335 337 339 340 340 341 342 342 342 341 342 343 342 342 341 342 341 341 340 339 339 339 339 339 338 338 336 334 333 332 331 330 329 327 325 325 329 330 331 331 332 332 331 330 330 330 328 328 329 332 333 332 333 334 334 334 334 334 332 331 329 329 330 330 329 329 329 328 329 328
344 343 343 343 341 339 337 337 336 334 331 329 326 326 329 333 336 339 340 340 341 342 342 342 342 342 343 342 341 341 340 340 340 339 338 337 337 336 335 336 336 335 332 330 329 327 326 324 323 324 327 329 330 331 332 332 331 331 329 329 329 329 329 330 333 333 332 332 332 334 334 335 333 332 330 329 330 329 329 330 329 328 328 328 327
344 343 343 343 341 340 338 338 338 336 333 330 328 326 326 330 335 339 339 339 340 342 342 342 341 342 341 341 340 340 340 339 338 336 334 333 334 332 329 329 331 329 327 327 326 325 324 323 322 324 327 329 330 332 332 332 331 330 330 330 330 330 329 330 332 332 332 332 332 332 333 334 332 332 332 330 329 329 329 330 328 328 328 327 326
343 344 343 343 341 340 339 338 338 337 334 331 329 327 324 326 333 338 340 339 340 341 341 341 341 341 341 340 340 339 339 337 335 333 331 330 330 328 325 324 325 326 326 325 325 324 323 322 321 323 327 329 330 331 332 332 331 330 330 331 331 330 330 331 333 332 332 332 332 332 332 332 330 331 332 330 329 329 328 328 328 328 327 327 327
344 343 343 343 342 341 340 339 338 337 335 332 330 328 325 324 329 336 340 339 340 340 341 341 341 341 340 340 340 339 338 337 336 334 334 333 330 328 325 325 326 327 327 326 324 323 322 321 321 322 326 329 330 331 332 332 332 331 331 331 331 330 329 331 332 332 332 331 331 332 332 331 329 332 332 329 328 328 328 329 329 328 327 327 327
344 344 344 343 342 341 341 340 338 337 336 334 332 329 326 325 326 332 338 339 339 340 340 341 341 340 340 340 340 339 338 337 337 336 335 335 333 331 327 326 326 328 328 327 323 320 320 320 320 322 325 328 330 332 332 333 333 332 332 332 331 331 329 329 332 332 331 331 330 331 332 331 330 331 330 329 329 329 328 328 329 327 327 327 326
344 344 344 343 343 342 341 341 339 339 338 337 335 331 328 327 327 331 337 339 339 340 340 341 340 340 340 340 339 339 338 337 336 335 334 334 334 333 330 327 327 328 328 328 324 318 317 319 320 321 325 328 331 332 332 333 333 333 332 332 331 331 330 329 331 332 330 330 330 332 332 330 329 330 329 329 329 330 328 327 328 327 327 327 326
344 343 343 343 342 341 341 341 340 340 339 339 338 334 332 331 330 334 337 338 339 339 340 340 340 340 339 339 339 338 338 337 336 335 334 333 334 334 331 329 329 329 328 329 327 320 315 317 319 321 324 329 331 332 333 333 333 333 332 332 332 331 331 330 331 331 330 330 330 332 330 326 327 329 329 329 328 328 328 328 329 328 327 327 325
343 343 343 342 341 341 341 341 340 340 339 338 336 335 334 332 332 334 336 337 338 339 339 339 338 338 338 338 338 338 337 337 335 336 335 333 334 335 332 329 329 330 329 329 329 323 315 315 319 320 325 329 331 332 332 333 333 333 333 332 332 331 331 331 331 330 330 329 329 330 327 325 328 329 330 329 328 328 329 329 329 327 327 327 324
342 342 342 341 340 340 341 340 340 339 337 335 334 335 333 332 334 334 334 336 336 337 337 337 338 338 337 337 337 337 335 333 334 336 335 333 334 335 333 330 328 329 329 329 330 326 317 314 317 320 325 330 332 332 332 332 333 333 333 332 332 332 331 331 331 329 330 329 328 328 325 326 330 330 330 329 329 329 328 328 328 326 327 326 324
341 341 341 340 340 340 339 339 338 336 335 333 333 334 333 333 333 333 334 335 334 335 336 338 338 338 338 337 336 334 331 329 330 331 331 331 335 336 335 332 330 329 329 329 329 329 321 314 315 320 325 330 332 333 333 333 333 332 333 333 332 332 331 331 331 330 330 329 329 327 323 326 330 330 330 329 329 329 328 327 327 327 326 325 324
341 341 340 340 340 339 338 337 336 334 333 333 333 333 333 332 333 334 335 334 334 334 336 337 337 337 336 335 334 332 329 331 332 331 329 330 333 335 335 333 331 329 329 329 328 329 326 316 315 319 325 330 332 333 334 334 335 334 332 332 332 332 331 331 331 331 330 329 328 326 323 325 328 330 330 329 329 328 327 326 327 327 326 325 325
340 340 339 339 339 337 337 335 334 334 334 333 333 333 332 333 334 335 335 335 334 334 335 336 335 335 334 333 332 331 332 335 336 334 333 333 334 334 334 332 330 330 329 329 328 329 328 321 316 320 325 329 332 333 333 334 335 334 333 332 332 332 331 331 331 331 330 328 328 325 323 325 326 329 330 329 329 328 327 326 327 327 326 325 325
339 339 338 338 337 337 336 334 333 334 334 334 334 333 332 334 335 335 336 335 335 335 334 334 334 334 333 333 334 336 336 337 337 336 337 337 337 336 336 334 331 330 329 328 329 328 328 325 320 320 325 330 332 333 332 332 332 333 333 332 333 332 332 332 332 332 331 329 328 326 324 324 325 327 329 329 328 328 327 327 326 326 326 325 325
338 339 338 337 337 336 336 334 333 334 334 335 335 334 333 334 335 335 335 335 335 335 334 334 333 332 331 333 336 338 337 338 338 338 339 338 339 338 337 337 335 333 330 328 328 328 328 328 324 323 326 330 331 331 331 330 331 333 333 333 333 333 333 333 332 332 332 331 329 327 324 324 325 326 328 329 329 327 327 328 327 326 326 324 325
338 337 336 336 336 336 335 334 334 334 335 335 335 335 334 335 335 334 335 335 335 335 335 334 334 332 331 334 336 337 337 337 338 338 338 338 339 339 338 338 337 336 333 330 328 327 328 328 327 326 328 331 331 330 331 330 331 332 333 333 334 334 333 333 333 332 332 332 330 329 326 324 325 326 327 329 329 328 327 328 327 327 326 324 325
337 337 336 335 335 336 335 334 335 334 335 336 335 335 334 335 335 335 335 335 334 335 335 334 334 333 332 334 336 336 337 337 337 337 337 337 338 338 338 338 338 337 337 334 329 327 327 328 328 328 329 332 332 331 331 331 331 332 334 334 335 335 335 333 333 333 332 332 331 330 328 325 324 326 326 327 328 329 328 328 327 327 326 324 324
337 336 335 335 335 335 334 334 335 335 335 336 335 335 335 335 336 336 335 335 335 335 334 334 334 333 331 333 335 336 337 338 338 338 338 338 338 338 338 338 338 337 338 337 333 329 327 327 328 329 330 332 333 333 332 332 332 332 333 334 334 335 335 335 333 333 332 332 332 331 330 326 324 326 326 326 328 330 329 327 328 327 326 325 324
336 337 336 335 336 335 334 335 335 335 335 336 336 336 336 336 336 337 336 336 336 335 335 335 335 334 334 335 337 338 338 339 338 338 338 338 337 338 337 338 338 338 338 337 336 334 331 329 328 328 330 331 332 332 332 333 333 333 333 333 333 333 335 335 334 334 333 333 333 332 331 329 325 325 326 326 329 330 329 328 328 327 327 326 325
337 337 336 336 336 336 336 336 336 335 335 336 336 336 337 337 337 337 338 336 336 337 337 338 337 338 338 338 338 338 339 338 338 338 338 337 337 337 337 337 337 337 338 337 337 336 335 333 330 329 329 329 330 330 330 332 333 334 333 332 332 332 333 334 334 334 334 333 333 332 332 330 327 325 326 326 328 330 329 329 328 328 328 327 326
337 337 336 336 336 337 338 337 338 338 338 337 336 336 337 337 337 338 338 337 337 338 339 339 338 338 338 338 338 338 338 338 337 337 337 337 337 337 337 337 337 337 337 337 337 337 337 336 334 333 331 329 328 328 329 329 332 333 332 332 331 332 332 333 334 334 334 333 333 333 332 331 329 326 326 327 327 329 329 329 329 327 327 327 327
337 336 336 337 337 338 338 338 338 339 339 339 338 338 338 338 337 338 338 338 338 339 339 339 338 338 337 338 338 338 338 336 336 335 336 336 336 337 336 337 337 337 337 337 337 337 337 337 337 336 335 333 331 329 329 329 331 333 332 332 332 332 332 332 333 334 334 334 333 333 332 332 330 327 326 327 327 328 328 329 329 328 327 328 328
337 336 336 337 337 338 339 338 338 340 340 340 340 339 339 339 339 339 339 338 339 339 339 338 338 337 338 338 338 337 336 336 335 335 334 335 336 336 336 336 337 337 337 337 337 337 337 337 337 336 336 336 335 334 333 333 334 334 333 333 332 333 332 332 333 333 334 334 333 332 332 332 331 329 327 327 327 326 327 327 328 328 328 328 327
338 338 338 337 338 338 339 338 339 340 341 341 340 340 340 340 339 339 339 339 339 339 338 338 338 338 337 338 337 336 336 336 335 335 334 334 335 335 335 336 336 337 337 337 337 337 337 337 337 336 337 337 337 336 336 336 335 335 334 334 333 333 332 332 332 333 333 334 333 332 332 332 331 330 328 328 329 328 327 326 327 326 327 328 328
339 340 339 339 339 339 339 339 340 341 341 341 340 340 340 339 338 338 339 339 339 338 338 338 338 337 337 337 337 337 336 336 335 334 334 334 334 334 335 335 336 336 336 336 336 336 336 336 336 336 336 336 336 336 336 336 336 336 335 335 334 333 332 331 331 332 332 333 333 333 332 331 331 331 329 328 329 329 327 326 326 326 326 328 328
340 340 340 340 340 340 340 341 341 340 340 340 339 338 338 338 339 339 340 339 339 338 338 338 338 337 337 337 337 336 336 335 335 334 334 334 335 335 335 335 336 336 336 336 335 336 336 335 336 336 335 335 335 335 336 336 336 336 336 335 335 334 333 332 332 332 332 332 333 332 332 332 331 331 330 328 327 328 327 326 326 326 325 327 328
341 340 340 340 341 341 341 341 341 339 338 338 339 338 338 339 339 339 339 339 338 338 338 337 337 336 336 336 336 336 335 335 335 335 335 335 335 335 336 336 336 335 334 334 334 335 335 335 335 335 335 334 334 334 334 335 335 334 335 335 335 335 334 334 334 334 333 333 333 333 332 332 331 331 330 329 327 327 326 325 325 325 325 326 327
341 340 340 340 340 340 340 340 339 338 338 338 338 338 339 339 339 338 338 338 338 338 338 337 336 336 335 335 335 335 335 335 335 335 335 335 335 335 335 335 335 335 334 334 334 334 334 334 334 334 334 334 333 333 333 332 333 333 333 333 334 334 334 334 334 334 334 334 333 333 332 332 331 331 331 330 328 328 327 326 325 326 327 326 326
340 340 341 341 339 338 338 339 338 337 338 339 339 339 339 339 339 339 338 338 337 337 337 337 336 336 335 335 335 334 334 334 334 334 334 334 334 334 334 334 334 334 334 334 334 333 333 333 333 333 333 333 332 332 332 332 332 332 332 332 333 333 333 333 334 334 334 334 334 333 333 332 331 331 331 330 329 329 328 327 326 327 329 328 327
339 340 340 339 338 338 338 338 338 338 339 340 339 339 339 339 339 339 337 337 336 336 336 336 336 335 335 334 334 334 333 333 333 333 333 333 333 333 333 333 332 333 333 333 333 332 332 332 331 332 332 332 332 332 331 331 331 332 332 332 332 332 332 333 333 333 334 334 334 333 333 333 332 331 331 330 330 329 328 327 327 327 328 329 328
337 338 339 339 338 338 338 338 339 339 339 339 338 338 339 338 338 337 337 336 335 335 334 334 334 334 333 333 333 333 332 333 333 332 332 332 332 332 332 332 332 331 331 331 331 331 331 331 330 330 331 331 331 331 331 330 331 332 332 332 332 332 333 332 332 332 333 333 333 333 332 332 332 332 331 331 330 330 329 328 327 326 327 329 329
335 335 337 337 337 337 337 338 338 338 338 338 337 338 338 338 337 336 335 334 333 333 332 332 332 332 332 332 332 332 332 332 332 332 332 332 332 332 331 331 330 330 329 329 330 330 330 330 330 330 330 330 331 331 330 329 330 332 332 332 331 331 332 333 332 332 332 331 331 332 332 332 332 332 332 331 330 330 330 328 327 326 326 327 328
332 333 335 336 336 336 336 336 336 336 337 337 337 337 337 337 336 334 333 332 331 331 330 330 330 330 330 330 330 330 331 330 331 331 331 331 331 331 330 330 330 329 328 329 329 329 329 329 329 329 330 330 330 330 330 328 329 330 331 331 331 331 331 332 331 331 331 331 330 331 331 331 331 331 331 331 331 330 330 329 328 327 326 326 326
331 332 334 335 335 335 335 336 336 336 336 336 336 336 336 335 334 333 332 331 330 329 329 329 329 329 328 328 328 328 329 329 329 329 330 330 330 330 330 330 329 328 328 328 329 328 328 328 328 328 329 329 329 330 330 329 328 328 330 331 331 331 331 330 330 331 331 331 331 330 330 329 330 331 331 331 331 330 331 330 329 328 327 325 325
328 328 330 332 333 333 334 334 334 334 334 334 335 334 333 332 332 332 331 330 329 328 327 326 326 326 326 325 325 325 326 327 327 328 328 328 328 328 328 329 329 328 327 327 328 328 328 327 327 327 327 328 328 329 330 329 328 327 329 331 330 330 330 330 331 331 331 331 331 331 330 329 329 331 331 331 331 331 330 330 330 329 328 327 326
326 326 327 329 330 331 331 332 332 332 332 332 332 332 332 331 330 330 329 328 326 325 324 324 324 324 324 323 322 323 323 324 324 325 325 325 325 325 325 326 326 326 325 326 325 325 326 326 326 326 326 327 328 329 329 329 328 328 329 330 329 329 330 330 330 331 330 330 331 331 331 330 329 330 331 330 331 331 330 330 330 330 329 328 327
324 325 326 326 327 328 328 329 329 329 329 330 330 330 329 328 327 327 325 325 324 323 322 321 321 321 322 321 320 320 320 320 321 322 322 322 322 321 321 322 323 322 323 323 322 322 323 324 324 324 324 326 327 328 328 328 328 328 328 328 329 329 330 331 330 330 330 330 331 331 331 331 330 330 331 331 330 330 330 330 330 330 330 329 328
323 323 324 324 324 324 325 325 325 325 325 326 327 327 326 325 325 324 323 323 322 320 319 319 319 319 319 319 318 318 318 317 318 317 317 317 317 317 317 318 319 319 319 320 319 320 321 321 321 321 321 323 323 324 325 325 326 326 326 327 328 329 330 330 330 331 331 331 331 330 330 331 331 331 330 330 330 330 330 329 330 330 330 329 329
321 321 322 322 321 321 322 322 321 321 321 322 323 323 322 322 322 322 321 320 319 318 317 317 316 316 316 316 316 315 315 314 314 314 314 313 314 314 313 314 315 315 316 317 317 317 318 318 319 319 319 320 320 321 321 322 323 323 324 325 326 328 328 329 330 330 330 331 331 330 330 330 330 331 331 330 330 330 329 329 329 329 329 329 328
320 320 320 320 319 319 319 319 318 318 318 319 319 319 318 319 318 318 318 317 316 316 315 314 314 314 313 313 313 312 312 311 310 311 311 311 311 311 311 312 312 313 313 314 315 315 315 315 316 316 317 317 317 318 319 319 320 320 321 323 324 324 326 327 329 329 329 329 330 330 330 329 330 330 331 330 329 329 329 328 329 329 329 329 329
Wind_Speed
17 17 20 21 19 18 15 13 11 11 12 15 15 16 18 17 17 17 17 17 17 17 16 17 18 19 20 20 19 18 16 16 15 15 16 16 16 16 16 15 16 16 15 16 16 16 16 17 17 17 17 17 18 17 17 16 16 15 15 15 13 13 13 14 14 15 15 15 15 14 14 13 13 13 12 12 11 11 10 12 13 12 13 13 12
19 18 20 22 19 18 16 13 11 12 13 15 16 17 18 17 18 18 19 18 18 17 16 16 18 19 20 19 18 17 15 15 15 15 16 16 16 16 15 15 15 15 15 15 15 16 16 17 16 17 17 17 17 17 17 17 16 15 15 14 13 12 12 13 14 14 14 15 15 15 14 14 14 13 12 12 12 12 12 13 13 12 12 12 13
20 18 20 22 20 18 15 13 12 13 13 15 17 18 18 17 18 18 18 18 18 17 16 17 17 18 19 19 18 16 15 14 14 15 15 15 15 15 15 14 15 15 15 15 15 15 16 16 16 16 16 16 16 16 17 17 16 16 15 15 14 12 12 13 13 13 14 15 15 15 15 14 14 13 13 13 13 13 12 13 13 13 12 12 12
21 19 19 20 20 18 15 13 13 13 14 16 17 18 18 18 18 17 17 16 17 16 16 16 17 18 18 18 16 16 15 14 14 14 15 15 15 15 15 14 14 15 15 15 15 16 15 15 15 15 15 15 15 15 16 16 16 15 15 15 15 13 12 13 14 14 15 15 16 15 14 13 13 13 13 13 13 13 12 13 13 13 12 12 12
21 20 20 20 18 18 16 13 13 14 14 16 17 18 18 18 18 18 17 16 16 16 16 16 16 17 17 16 16 15 15 14 14 14 14 15 14 14 14 14 14 14 14 14 15 15 15 15 15 15 14 14 14 14 14 14 14 14 15 16 16 14 13 13 14 15 15 15 16 15 13 13 13 13 12 12 12 12 12 12 12 11 11 11 11
21 21 22 19 18 18 16 14 13 14 14 15 16 17 18 18 18 18 17 16 16 16 16 16 16 16 16 16 15 15 14 14 14 14 14 14 14 13 13 13 13 14 14 14 14 15 14 14 14 14 13 13 13 12 12 12 12 12 13 15 15 14 13 14 15 16 17 16 15 14 14 13 13 13 12 12 12 12 12 11 11 10 10 10 10
20 21 22 18 16 17 17 14 14 15 14 15 16 17 17 17 18 18 17 17 16 16 16 16 15 16 16 16 15 15 14 14 13 14 14 14 13 13 13 13 13 13 13 13 14 14 13 13 13 12 12 12 12 12 11 10 10 10 11 12 13 13 13 15 16 17 18 16 14 13 13 13 12 12 12 12 12 12 12 11 11 10 9 9 9
18 19 20 17 15 18 17 16 15 15 15 15 16 17 17 17 17 17 17 17 17 17 16 16 15 15 15 15 15 14 14 14 13 14 14 13 13 13 13 13 13 13 13 13 13 13 13 12 11 11 10 11 11 10 9 9 9 8 8 9 11 11 12 14 14 15 15 13 12 13 12 12 12 12 13 12 11 11 11 11 11 10 9 9 9
17 18 19 16 16 18 17 17 16 15 15 15 16 16 17 17 16 17 16 17 17 17 16 15 14 15 15 15 14 14 14 13 13 13 13 13 13 13 13 13 13 13 13 12 12 12 12 11 10 9 9 9 9 9 8 8 8 7 6 7 8 10 11 13 13 13 13 11 12 12 12 12 12 13 12 11 10 10 10 10 10 9 9 9 9
17 17 17 16 16 18 17 17 16 15 15 15 15 16 16 17 16 16 16 17 17 16 15 14 14 14 15 15 14 14 14 13 12 13 13 13 12 13 13 13 12 12 11 11 11 10 10 9 8 7 7 8 8 8 8 8 7 7 6 6 8 9 10 13 13 12 12 12 11 11 11 12 11 11 9 9 10 9 9 9 8 8 8 8 7
17 17 17 16 17 17 17 17 16 16 15 15 15 15 16 16 16 16 15 16 16 15 14 14 14 14 14 14 14 13 13 12 12 12 12 12 12 12 12 12 12 11 10 9 9 8 8 7 7 7 7 7 7 7 7 7 8 9 8 8 8 9 10 11 12 11 11 11 10 10 10 11 10 9 8 8 9 8 8 8 7 7 7 7 6
17 17 16 16 16 17 18 16 16 16 15 15 14 14 16 17 17 16 15 15 16 15 14 13 14 13 13 13 13 13 12 12 12 12 11 11 11 11 10 10 11 10 9 8 7 7 6 6 6 7 8 8 7 7 8 7 8 10 10 9 8 8 9 10 10 9 10 10 10 10 9 9 9 8 8 8 8 7 7 7 6 6 7 5 6
18 17 16 17 16 16 17 16 16 16 16 15 14 14 15 17 17 17 16 15 15 14 13 13 13 13 12 12 13 12 12 11 11 11 10 10 10 9 9 9 9 8 7 6 6 6 6 6 7 8 9 8 7 7 8 8 8 10 10 9 8 8 7 8 9 9 9 9 9 9 8 8 8 7 8 8 8 8 7 7 6 6 6 4 6
19 19 17 18 16 16 16 16 16 15 15 14 14 14 14 16 17 17 16 15 15 14 13 13 12 12 12 12 11 11 11 10 10 9 9 9 9 9 9 9 8 8 7 6 5 4 4 5 7 8 8 8 7 7 9 9 9 10 10 8 8 7 6 7 8 8 7 8 8 8 7 7 6 7 8 8 7 7 6 5 6 5 5 4 5
20 20 18 17 17 16 15 15 15 15 14 14 13 13 13 14 16 18 16 15 14 13 13 12 12 12 12 11 10 9 10 9 9 9 10 10 10 10 10 11 10 9 8 6 5 4 4 5 7 8 8 7 7 7 9 9 9 9 9 8 7 7 7 7 6 6 6 7 7 7 7 6 6 6 7 7 6 6 5 4 5 5 4 4 5
19 19 19 18 17 16 15 14 14 14 13 13 12 12 12 13 15 17 16 15 14 13 12 12 12 12 11 10 9 9 10 9 9 10 10 10 10 10 10 10 10 9 9 8 7 5 4 5 7 8 8 8 6 7 8 9 8 8 8 7 7 7 7 7 6 5 6 6 6 7 6 6 6 6 6 5 5 5 5 4 4 4 4 4 4
18 18 18 17 17 16 15 14 13 13 12 12 11 12 13 13 14 15 15 14 14 13 12 11 11 11 10 10 10 10 10 9 8 8 9 9 9 10 10 9 9 8 9 9 8 6 4 6 8 9 8 8 6 6 7 7 7 7 7 6 6 7 7 7 6 5 5 5 6 6 6 5 6 6 5 5 5 5 5 4 3 2 3 3 2
17 16 17 17 16 15 14 14 13 12 12 11 10 12 13 13 13 15 15 14 14 12 11 11 11 10 10 9 9 9 8 7 7 7 7 8 8 9 9 9 9 8 8 9 9 6 4 6 8 9 9 8 7 6 6 7 6 6 6 6 6 6 7 7 5 5 4 5 5 5 5 5 6 6 5 6 6 4 4 3 3 1 2 3 2
16 16 17 16 15 14 15 14 13 12 11 10 10 11 12 12 13 15 15 13 13 12 11 11 10 9 8 7 7 7 6 6 6 6 6 7 8 8 8 9 9 8 8 8 9 7 5 5 7 9 9 8 7 6 7 7 7 7 6 5 5 6 7 6 5 4 4 4 4 4 3 4 6 6 6 6 5 4 3 3 4 2 2 1 1
15 16 16 16 16 15 15 14 12 11 10 10 10 10 11 11 12 13 13 13 12 11 11 10 9 8 7 6 6 6 5 5 5 5 5 6 6 7 7 8 8 9 8 8 8 8 5 5 6 8 9 8 7 6 7 8 8 7 6 5 5 5 5 5 4 4 4 3 3 3 2 4 6 6 6 5 6 5 4 4 3 2 2 1 1
15 16 15 15 15 14 14 12 11 10 10 10 11 11 11 11 11 11 12 11 10 10 10 9 8 7 7 6 5 5 4 3 4 3 3 4 5 6 6 6 6 7 8 8 8 8 6 4 6 7 8 8 7 7 8 8 8 7 6 5 4 4 3 3 4 3 3 3 3 3 2 4 5 5 4 4 5 4 4 4 3 2 2 1 1
16 16 15 14 13 13 12 11 10 10 10 10 10 11 11 11 10 11 11 9 8 9 10 9 8 7 6 5 4 4 4 4 4 3 3 3 4 4 5 5 5 5 6 7 8 8 6 3 5 7 8 8 7 7 8 7 6 6 5 4 4 3 1 2 2 2 2 2 3 3 1 5 6 4 4 4 4 4 5 4 2 2 3 1 3
17 17 16 13 12 12 11 10 10 10 10 10 10 10 10 10 10 11 10 8 8 8 8 7 6 5 4 4 3 4 5 6 6 5 5 4 4 4 3 4 4 4 4 5 7 7 7 3 5 7 8 8 7 7 8 7 5 5 4 4 3 2 1 0 1 1 1 1 3 2 1 5 6 6 6 5 5 5 5 4 3 3 4 3 5
16 16 15 12 11 11 11 10 10 10 10 10 10 10 10 10 10 10 9 8 8 8 7 6 6 5 3 4 4 5 6 6 6 6 5 6 5 5 4 5 4 3 3 4 5 6 7 4 3 7 8 8 7 7 7 7 6 5 4 3 2 1 2 2 2 2 2 2 3 3 1 4 5 7 7 6 6 6 4 4 4 5 4 4 5
16 16 14 12 12 11 10 10 10 10 10 10 10 10 11 11 10 9 9 8 7 8 7 6 6 5 4 4 4 4 5 5 5 6 5 5 5 6 6 6 6 4 3 3 4 5 6 5 2 5 7 7 7 7 6 6 6 5 4 3 1 2 3 5 5 5 4 4 4 3 3 4 5 6 7 7 7 6 5 4 4 5 5 5 4
15 14 13 12 11 11 10 9 10 10 10 10 10 10 10 10 9 8 8 7 7 6 6 7 7 6 6 5 4 3 3 4 4 5 5 5 5 5 5 6 8 6 5 4 4 4 5 5 2 3 5 5 6 6 5 4 3 3 2 3 3 4 5 6 8 8 7 7 6 5 4 5 5 6 7 8 8 7 6 4 4 6 7 7 5
13 12 13 12 11 10 10 9 10 10 10 10 10 9 9 8 8 7 7 7 6 5 6 6 6 5 5 4 3 2 2 3 4 5 5 6 5 5 4 5 6 6 7 6 4 4 4 5 3 1 3 3 3 3 2 0 3 4 4 6 7 7 7 8 9 10 10 9 9 8 6 6 6 6 7 8 8 8 7 6 6 6 7 6 5
12 12 13 12 12 10 10 10 9 10 10 10 10 9 9 8 7 6 6 6 5 5 4 5 4 4 3 2 1 2 2 4 4 5 6 6 5 5 4 5 5 5 7 8 7 5 4 4 3 0 2 2 2 2 2 4 5 6 6 7 9 9 9 9 10 11 12 12 11 10 9 8 8 8 8 8 9 8 8 8 7 7 7 6 6
13 13 12 12 11 10 10 9 9 10 10 10 9 10 10 8 6 6 6 5 4 4 4 3 3 2 2 2 3 4 4 4 5 6 6 5 5 5 4 5 5 5 5 6 7 6 4 4 3 2 3 4 4 4 5 5 7 8 8 8 9 10 10 10 10 11 12 13 13 12 12 10 10 9 9 9 9 9 9 8 8 7 7 7 8
13 12 11 11 10 10 10 9 9 9 9 9 9 9 8 7 5 5 6 5 3 3 4 3 3 3 3 4 5 6 6 6 6 7 6 5 5 4 4 4 5 5 5 4 5 6 5 4 5 4 4 5 6 7 8 6 7 8 10 10 11 11 11 10 10 10 11 13 15 15 14 13 12 11 11 11 10 10 9 9 9 9 8 8 9
13 12 11 11 11 11 10 9 9 8 8 8 8 7 6 5 5 5 5 5 5 4 4 4 4 4 4 5 6 7 7 7 8 7 6 5 4 5 5 4 4 5 5 5 5 4 4 4 5 6 6 7 8 10 11 10 9 9 11 12 13 14 13 13 12 11 11 12 14 16 16 15 14 13 13 13 12 12 11 10 10 10 10 10 9
13 12 12 12 12 11 10 9 9 8 7 7 7 6 5 5 5 4 4 5 5 4 4 4 5 5 6 6 6 7 8 9 9 7 6 4 4 4 5 4 3 4 5 6 6 5 4 4 5 6 7 8 9 10 11 13 12 11 12 14 15 16 15 15 14 13 13 12 13 16 17 17 16 15 14 14 14 14 13 12 10 11 12 11 10
13 12 12 12 12 11 10 9 8 8 7 7 6 6 5 5 5 4 4 4 4 4 4 5 5 6 6 6 7 8 9 9 9 8 6 4 4 3 3 3 3 3 4 5 5 6 5 5 5 6 7 8 9 11 12 13 13 13 14 15 15 16 16 16 16 15 15 14 13 15 17 19 18 17 16 16 16 16 15 14 12 12 13 12 12
13 13 13 12 11 10 9 8 7 6 6 6 6 6 6 5 5 4 4 4 4 4 5 5 6 6 6 6 7 8 8 8 9 8 6 4 3 3 3 2 3 3 4 4 4 4 5 5 6 6 7 7 8 10 12 13 14 15 16 16 17 16 17 17 16 16 16 15 14 15 17 20 20 19 18 18 18 17 17 16 15 14 13 13 14
14 14 13 12 10 8 8 8 7 6 5 5 6 7 7 6 6 5 5 5 5 5 5 6 7 7 7 6 7 8 7 8 9 8 6 4 3 3 3 3 4 4 4 4 4 4 5 5 6 6 7 7 8 9 10 11 13 14 16 18 18 19 19 19 18 18 17 17 16 16 17 20 21 21 20 19 18 18 18 18 17 16 14 14 15
15 14 13 11 9 8 7 8 7 6 6 6 6 7 7 7 7 6 6 6 5 6 7 7 8 8 8 7 7 7 7 7 8 8 6 4 4 4 5 5 5 5 5 6 6 5 5 5 5 5 6 7 8 8 9 10 11 12 13 15 17 18 21 21 20 19 19 18 18 17 17 19 21 23 23 22 20 18 18 19 19 18 16 15 16
13 13 12 11 9 8 8 8 7 7 7 7 7 7 7 8 8 8 7 6 6 7 8 8 7 7 7 7 6 6 6 7 7 7 5 4 5 5 5 5 5 5 5 6 6 6 5 6 5 5 6 7 8 9 9 10 11 12 12 13 14 15 17 19 19 20 20 20 20 20 19 19 21 23 26 25 24 22 20 19 20 20 18 18 18
13 12 12 11 10 10 9 8 8 8 8 7 7 8 9 10 9 8 8 8 8 7 8 7 6 6 6 6 6 6 6 7 7 7 6 5 5 5 5 5 5 5 5 5 6 6 6 7 7 7 7 8 9 9 10 10 11 12 12 12 12 12 14 16 16 17 18 18 19 21 21 21 21 23 26 27 26 25 23 21 20 20 20 20 20
13 13 12 11 11 10 10 9 8 9 9 9 9 10 10 9 8 8 8 9 9 9 8 8 7 7 8 8 7 7 7 6 7 7 6 6 6 6 5 5 5 5 5 5 6 7 7 8 9 9 9 10 10 10 10 11 12 13 13 13 13 12 12 13 15 16 16 16 16 18 20 21 23 24 26 27 27 26 25 23 21 20 20 21 22
12 13 14 13 11 10 10 10 9 9 9 9 9 9 8 9 8 8 9 11 12 12 10 9 8 9 9 10 9 9 8 7 7 7 7 7 6 6 6 6 5 5 5 5 6 7 8 8 8 9 10 10 10 10 10 11 12 13 13 14 13 13 13 13 14 15 15 16 16 16 16 18 21 24 26 27 28 28 27 26 23 20 19 20 22
12 14 15 13 11 10 11 11 10 9 8 8 8 8 8 9 9 10 11 13 15 15 13 12 12 12 12 12 12 11 10 8 8 9 8 7 6 5 5 5 5 5 5 5 5 6 7 8 8 9 9 10 10 9 9 11 11 10 11 13 15 15 14 12 12 13 14 15 15 15 16 16 19 22 26 28 30 30 29 29 26 23 21 19 20
14 15 15 13 12 11 11 12 10 9 10 10 10 9 9 9 9 10 12 12 13 15 16 16 16 16 15 15 14 12 11 9 9 10 9 7 7 6 6 6 6 6 6 6 6 7 8 8 9 9 9 9 9 8 9 10 9 11 12 12 12 12 10 10 10 11 11 12 12 13 15 17 18 19 22 26 29 31 32 32 30 27 25 22 20
15 15 15 15 14 12 12 12 11 10 11 11 11 10 10 10 10 11 13 15 14 15 17 17 17 17 16 16 15 14 13 11 9 9 9 8 7 7 7 8 8 9 9 9 9 9 9 9 9 9 9 9 8 8 9 9 10 13 12 8 7 8 8 7 7 9 10 11 12 12 13 15 17 18 18 20 23 27 30 33 33 29 27 26 23
15 17 17 17 16 14 13 13 13 11 11 12 12 12 12 13 14 14 15 17 16 14 15 15 14 14 13 13 13 12 11 11 10 9 8 8 8 7 8 8 9 10 11 9 9 10 10 10 11 10 10 10 10 8 9 10 11 11 9 6 6 6 6 7 10 12 11 11 11 11 12 13 15 16 17 19 20 22 25 29 34 32 28 29 28
14 16 19 19 18 16 15 14 15 14 14 14 13 14 15 15 15 14 14 15 13 11 11 11 10 10 10 11 12 11 10 10 9 9 9 8 8 7 7 8 8 10 11 10 9 10 10 11 12 12 11 11 11 11 12 13 12 10 9 7 5 5 5 10 13 11 8 9 10 11 13 15 15 15 16 19 20 21 22 23 32 36 31 30 33
13 14 19 21 19 18 17 17 17 17 16 15 14 13 13 12 11 10 9 9 10 10 10 10 9 9 9 10 13 13 11 11 10 10 10 9 9 8 8 8 7 8 9 8 8 8 9 11 12 12 13 13 12 13 14 14 14 13 11 8 6 9 10 12 11 8 9 12 12 13 15 16 16 16 17 19 19 20 22 21 27 35 31 27 34
15 17 20 22 20 20 19 18 17 16 15 14 12 11 11 12 12 12 10 9 10 9 8 9 9 8 7 8 11 12 12 11 10 9 9 9 9 9 10 9 8 9 8 7 8 9 9 10 11 13 14 14 13 13 13 13 13 12 11 10 12 16 15 11 8 8 10 11 13 16 18 18 18 17 17 19 20 20 23 23 23 31 33 29 33
18 19 20 21 20 20 19 18 17 16 15 14 13 14 15 15 16 15 13 10 10 9 8 9 9 9 8 8 10 11 11 11 10 9 9 9 9 9 10 10 9 10 10 10 11 12 11 11 12 14 15 14 13 14 14 14 13 13 14 13 14 16 15 13 12 11 10 9 12 15 16 18 19 18 17 19 22 22 24 25 23 25 31 30 32
19 19 19 19 19 19 18 18 18 16 15 14 14 15 15 15 15 14 13 10 8 8 9 10 10 10 10 10 10 11 11 11 11 11 11 10 10 10 11 12 11 11 12 12 13 14 13 13 13 14 14 14 14 15 15 16 16 17 18 17 16 15 15 16 14 12 12 10 10 11 13 16 17 18 19 19 21 24 25 27 26 24 25 29 33
19 19 19 18 19 19 19 19 19 18 16 15 15 14 13 14 14 13 13 10 9 9 10 11 11 12 12 12 12 12 13 12 11 12 12 11 11 12 13 14 13 13 14 14 15 15 15 14 13 13 14 15 15 15 15 16 17 19 19 18 19 17 15 14 11 11 11 10 10 12 15 16 14 17 20 19 20 23 25 26 28 27 24 27 33
19 20 20 19 20 21 20 21 21 19 18 16 16 16 15 16 16 15 14 13 12 11 12 13 14 14 14 14 14 13 13 12 11 11 13 12 13 15 15 15 15 14 14 14 14 15 15 15 15 14 15 15 16 16 16 16 17 18 18 17 19 20 18 15 13 13 11 10 10 11 15 17 17 19 19 19 21 22 24 25 27 29 26 23 27
Wind_Direction
156 156 156 159 155 150 145 140 128 122 125 121 118 118 121 119 117 115 118 122 124 124 121 120 120 119 116 113 111 112 112 112 113 114 113 111 110 108 107 106 105 103 103 104 104 104 104 105 104 104 103 103 102 102 101 98 96 93 89 83 82 89 95 93 91 92 93 94 94 95 95 94 92 90 89 87 87 88 92 86 78 74 73 69 67
152 155 156 158 155 150 145 141 130 121 123 122 119 116 116 114 115 114 115 117 119 118 116 116 115 116 115 115 116 116 114 115 116 116 114 112 111 108 106 104 104 103 103 103 103 105 106 106 105 106 106 106 105 104 101 96 94 91 85 78 78 87 98 99 96 95 96 96 95 96 95 94 94 93 91 86 84 82 83 85 82 77 77 75 72
146 153 154 157 154 149 146 143 130 120 123 125 120 117 116 113 113 112 114 115 116 114 113 115 115 116 118 118 117 116 115 115 114 114 114 111 110 107 105 103 103 103 102 102 102 105 105 105 105 105 105 107 106 105 101 94 91 87 81 76 77 84 96 98 96 100 102 106 105 101 95 92 91 89 87 85 83 80 77 79 80 80 80 78 76
145 149 150 154 152 149 147 144 131 120 124 128 122 119 119 115 114 112 113 113 114 114 114 115 116 118 118 117 115 115 113 113 113 113 113 110 108 106 105 104 104 103 103 102 103 105 104 103 103 103 105 107 106 105 100 92 87 83 80 75 75 81 94 99 100 106 107 110 108 101 97 96 91 86 87 89 88 85 79 77 80 84 83 81 81
144 147 151 150 149 150 149 145 131 121 123 128 125 121 122 120 120 118 116 115 116 116 116 117 117 118 117 116 116 115 114 114 113 112 111 109 108 105 105 104 104 104 105 105 108 107 104 103 102 103 104 105 104 103 100 91 83 80 79 74 74 79 90 102 107 110 110 109 103 98 100 100 96 93 96 96 92 88 84 81 83 85 85 83 81
144 148 152 148 147 150 150 146 132 123 121 128 128 125 126 124 124 120 116 116 117 118 118 119 118 118 117 117 116 116 115 115 113 112 110 107 106 104 104 103 104 104 106 107 110 109 104 103 103 104 102 101 101 101 99 91 80 77 77 74 75 78 88 101 107 109 107 105 99 97 100 100 100 98 96 94 91 87 84 83 81 80 84 82 78
143 149 151 147 146 149 150 145 133 125 119 123 126 127 128 126 125 120 117 118 119 119 119 119 119 118 117 117 117 116 115 115 114 111 108 105 103 102 102 101 101 101 105 110 111 108 105 105 105 104 102 99 97 97 97 92 83 77 77 77 78 80 90 99 102 104 102 98 96 100 101 100 100 98 98 95 90 86 82 81 79 76 78 77 77
141 149 150 144 144 148 149 144 134 125 120 121 123 126 126 127 126 121 122 124 123 121 121 120 119 117 116 116 116 116 115 114 112 110 108 105 103 102 102 99 98 98 102 109 111 109 106 105 103 104 103 100 94 92 89 83 79 76 78 81 83 84 97 102 100 100 99 97 98 100 101 101 101 102 103 96 90 92 91 85 82 79 77 78 78
140 148 149 142 143 146 144 141 133 126 123 121 123 126 128 131 130 125 126 127 125 121 122 123 120 119 117 115 115 116 114 112 109 109 107 104 102 98 96 96 97 98 101 105 108 109 107 102 101 105 105 102 95 89 81 71 67 70 78 90 92 91 104 113 107 102 98 100 101 101 102 102 102 103 104 96 94 98 96 92 85 80 79 81 87
139 145 146 137 143 146 140 139 133 128 126 121 121 126 131 134 130 125 125 127 125 123 125 125 122 120 119 116 115 114 112 110 108 105 103 101 99 96 96 96 96 96 100 103 105 107 106 99 97 103 104 101 93 83 70 60 65 75 87 103 108 99 108 119 113 105 102 102 102 104 106 104 101 101 101 95 97 97 92 94 89 85 82 78 84
140 143 141 136 146 146 139 138 134 131 127 121 119 124 133 134 128 123 123 127 126 126 128 127 127 122 119 118 116 115 111 111 108 105 101 98 97 96 97 97 94 91 94 98 103 106 103 94 90 97 103 98 86 73 57 54 72 82 89 102 115 107 108 116 111 108 106 103 102 104 104 100 101 102 95 91 101 101 90 87 85 84 81 74 69
142 141 137 138 148 145 140 138 133 131 126 123 120 123 133 134 130 126 126 130 129 129 129 129 130 123 119 120 120 117 113 109 104 102 99 96 95 94 93 94 95 91 91 93 98 100 98 94 94 102 104 95 78 62 50 58 80 85 89 99 112 112 107 110 111 114 109 108 108 105 103 99 100 98 93 99 106 98 90 89 87 86 80 78 74
142 141 140 141 147 145 141 136 131 130 127 124 123 124 132 135 133 131 132 136 135 131 131 131 128 124 121 122 121 117 112 108 103 100 99 97 94 91 90 93 96 91 90 94 97 97 98 95 100 107 106 94 74 58 52 66 86 88 92 99 107 110 109 112 114 117 113 115 115 110 107 102 99 93 97 108 107 96 94 92 87 88 85 83 79
143 142 142 143 146 146 141 136 132 129 129 127 127 129 133 137 137 137 136 141 141 135 134 133 129 125 122 120 119 116 112 108 102 98 94 94 92 87 84 88 91 89 91 97 99 102 103 97 105 113 109 96 75 60 56 68 86 90 94 99 100 97 104 117 118 119 119 120 122 123 114 108 106 100 106 109 107 105 99 90 87 88 89 86 81
145 144 143 143 146 146 142 138 134 131 131 131 133 136 137 139 142 142 138 143 145 137 135 133 131 126 122 119 114 111 105 98 91 85 81 80 82 79 77 82 86 86 84 81 84 97 111 108 115 120 115 103 80 63 59 66 81 91 95 95 91 83 92 115 122 122 126 128 129 132 121 120 126 116 115 113 110 112 102 90 92 85 80 86 87
145 145 142 144 146 146 143 141 138 136 135 136 140 141 140 140 144 146 142 144 146 140 136 134 132 128 124 121 113 105 97 89 80 74 71 68 68 69 70 76 79 76 71 67 70 86 112 122 125 128 124 113 87 67 63 67 77 89 94 91 87 77 79 102 123 126 129 133 132 134 126 128 137 126 120 119 119 121 115 107 100 88 85 96 98
145 144 143 145 147 146 144 144 142 140 140 142 145 144 145 143 145 152 148 144 145 142 138 134 132 127 124 118 109 103 95 88 78 69 66 65 63 63 65 69 72 67 64 61 62 77 111 131 134 136 131 122 98 75 68 71 81 90 94 90 84 76 70 85 113 122 129 133 134 136 128 138 149 136 127 127 129 132 126 120 113 91 96 103 80
144 144 145 146 147 147 145 146 145 141 140 140 143 146 146 142 142 151 151 145 141 142 138 133 132 127 123 115 106 98 92 84 73 65 64 64 62 65 65 65 68 64 60 58 56 67 104 134 141 142 137 126 105 83 78 80 90 97 100 95 86 79 68 76 102 117 126 131 135 136 135 167 170 144 134 130 130 136 128 128 138 125 113 107 68
145 146 149 149 149 148 146 148 147 143 143 142 143 144 142 139 140 148 151 144 138 140 137 132 130 126 120 114 107 94 83 74 65 61 63 59 58 66 70 67 65 62 58 57 53 57 88 134 149 149 140 128 110 91 88 89 98 106 107 107 97 83 71 77 103 116 125 133 139 145 158 182 169 147 148 145 146 157 158 150 150 149 140 129 46
146 150 151 155 155 150 148 150 149 145 146 145 143 141 141 139 138 145 149 143 139 138 136 135 131 124 122 119 111 97 83 73 67 61 53 48 56 61 67 71 65 62 58 54 51 50 73 132 157 154 143 130 116 98 93 94 104 113 115 121 112 94 83 89 101 108 130 142 139 160 173 154 151 156 165 164 160 166 168 162 169 186 177 296 355
150 154 155 158 156 150 147 148 148 147 147 145 142 141 139 135 134 142 145 141 142 142 138 138 134 130 132 123 110 96 74 63 68 60 40 40 59 55 55 70 68 62 54 51 49 45 59 122 166 161 148 133 119 103 93 97 107 116 121 127 127 123 104 94 93 102 132 145 148 172 162 134 150 169 175 170 166 171 173 178 196 210 209 255 140
152 156 157 155 151 148 146 143 145 147 146 143 140 137 136 135 136 139 139 136 140 146 143 141 139 138 136 121 101 77 56 66 73 59 50 58 76 56 42 54 61 59 48 45 46 43 47 98 169 164 154 139 122 109 97 101 112 118 124 129 148 164 136 91 91 109 143 158 169 183 122 135 161 185 198 194 188 191 188 196 207 202 224 193 164
153 156 157 154 148 145 144 143 146 146 143 138 134 135 138 138 137 137 137 134 134 143 147 144 141 137 134 117 92 74 72 78 73 58 55 69 85 72 45 37 41 49 40 35 40 40 35 58 162 164 158 144 128 118 110 115 124 127 130 142 171 193 224 340 55 158 190 197 191 204 125 141 168 191 210 212 206 213 207 200 205 222 238 202 179
154 155 156 154 148 143 143 146 148 144 138 135 133 136 140 140 139 140 137 133 131 136 143 144 142 139 136 124 100 87 84 72 62 63 59 58 59 50 40 27 21 23 24 21 29 36 31 38 143 164 158 146 136 128 121 120 124 127 122 132 171 229 280 290 291 251 246 251 228 236 190 160 171 187 208 218 213 224 220 199 217 240 238 211 201
153 153 155 152 147 144 144 148 148 142 136 135 135 136 141 142 141 141 135 130 127 126 130 132 137 140 135 128 106 86 80 65 54 57 53 47 42 34 30 24 20 8 360 3 6 29 34 31 94 158 159 147 139 135 128 112 99 104 97 82 48 325 299 289 284 269 265 267 255 258 228 196 182 185 206 215 217 224 216 212 224 232 229 217 209
153 152 153 150 148 146 146 149 147 142 137 136 134 134 141 143 139 137 131 125 122 119 118 121 127 133 136 133 114 83 66 62 45 36 31 28 28 26 26 23 23 16 6 2 344 6 30 29 50 151 159 151 146 144 141 116 70 61 46 18 352 325 301 284 283 278 270 272 267 263 243 221 207 198 208 211 218 224 215 233 230 218 234 231 213
150 151 152 150 149 149 150 151 148 143 139 134 133 137 142 139 135 134 128 121 121 120 117 118 120 126 136 140 123 85 45 38 24 16 14 14 17 15 17 17 21 21 15 13 354 344 7 23 30 158 170 161 166 171 171 245 355 360 352 348 342 326 311 289 281 279 272 274 271 267 255 235 226 213 211 210 216 221 210 223 232 228 243 236 219
148 149 152 152 152 153 154 151 147 143 139 137 137 139 137 132 131 131 126 120 122 123 118 115 114 120 131 133 88 34 14 10 3 2 1 4 8 3 6 10 12 16 15 16 12 358 341 357 14 283 220 209 226 256 277 305 326 341 341 340 339 330 323 308 293 284 273 272 270 268 265 247 238 227 222 217 211 218 217 219 233 242 248 238 225
149 151 153 154 155 154 153 150 148 145 143 142 138 136 134 133 133 128 118 116 122 117 106 101 96 92 75 33 8 1 356 357 356 357 358 357 356 352 355 3 4 2 8 13 15 13 350 331 331 310 260 238 244 263 278 296 308 322 327 327 327 323 321 319 312 298 279 270 267 265 266 257 245 236 232 226 209 215 226 222 230 238 241 242 232
150 151 152 153 153 151 148 148 148 146 144 141 133 132 135 133 131 121 110 107 106 94 87 79 69 55 30 8 357 352 351 353 354 355 358 358 355 352 350 358 1 354 358 1 6 10 358 334 312 303 285 258 252 257 265 281 290 300 309 313 314 312 309 311 314 307 289 273 265 262 264 261 251 243 238 234 217 217 230 227 228 236 240 240 232
151 149 150 151 151 148 144 143 141 138 136 133 132 132 131 128 121 113 106 96 86 78 68 55 44 31 14 2 355 352 353 354 354 353 353 356 1 4 3 5 3 352 349 348 350 347 336 325 309 300 292 277 265 263 266 276 280 283 295 303 306 306 304 302 302 303 298 281 267 260 259 260 255 247 240 238 227 219 227 230 231 234 237 237 229
150 150 150 149 150 147 141 138 132 129 128 125 129 129 121 115 105 99 97 82 72 62 50 42 30 22 14 9 6 3 2 0 358 353 349 352 356 4 8 8 6 353 348 346 339 331 319 305 300 297 295 288 279 274 274 278 280 280 286 293 298 301 300 298 297 296 295 287 274 261 255 255 254 249 242 239 232 224 223 226 233 232 234 236 228
148 149 149 148 149 146 144 141 131 123 119 117 119 117 107 99 89 88 82 69 61 47 39 34 22 21 27 25 20 13 8 8 5 357 351 351 350 355 1 5 11 2 354 349 339 334 328 311 300 297 294 291 286 283 281 280 281 281 284 289 291 294 297 296 295 293 290 287 279 267 257 252 251 249 246 241 234 228 223 222 227 229 231 235 229
147 147 146 147 147 147 150 145 135 125 115 112 112 109 103 93 88 87 80 70 62 50 37 31 26 28 35 30 20 18 17 14 12 8 8 10 5 3 8 11 12 8 355 348 348 340 329 320 314 307 299 294 290 288 286 283 282 283 284 286 286 286 289 290 289 288 286 283 280 272 260 252 247 246 245 244 239 233 228 225 225 225 226 230 230
147 145 144 146 144 143 145 139 137 131 118 118 113 107 101 95 91 84 82 79 66 54 41 35 39 39 37 28 21 26 26 18 13 13 22 38 44 34 34 28 14 16 3 352 353 339 327 324 319 312 306 300 296 293 290 287 286 285 285 286 285 283 282 282 282 282 281 279 277 272 263 254 247 245 244 242 240 236 232 230 228 227 223 224 229
151 148 143 142 137 127 128 132 138 131 121 122 116 107 101 97 91 83 78 74 66 60 53 46 46 42 36 34 33 33 30 23 20 22 30 42 50 43 37 31 22 21 10 0 354 340 331 323 318 315 309 304 299 297 294 290 288 286 286 287 286 283 280 278 277 277 276 275 273 270 265 257 251 247 244 240 238 237 235 232 232 234 227 219 226
161 153 143 141 138 131 134 134 127 118 114 115 115 111 105 98 89 82 72 63 63 63 59 51 48 46 44 45 45 46 43 36 32 35 44 49 49 47 41 34 29 26 15 3 351 343 336 324 318 315 310 308 303 300 298 294 290 288 288 287 287 284 280 277 275 275 274 272 271 268 264 261 256 250 246 243 242 241 239 235 234 237 233 222 221
159 151 145 144 139 132 131 126 116 110 109 110 113 112 105 96 85 75 68 63 63 64 62 55 54 61 63 61 59 60 58 48 43 45 52 56 53 49 44 34 28 19 5 349 337 336 339 332 324 317 313 311 304 299 298 294 292 291 291 289 288 285 280 276 273 272 271 268 268 268 265 262 258 252 247 246 245 243 242 240 237 237 237 231 221
143 146 146 140 136 127 116 116 121 118 112 106 105 106 100 90 79 71 71 69 69 74 73 67 66 69 67 65 63 62 58 50 48 47 46 47 42 38 33 24 15 5 353 341 335 334 334 331 326 318 313 310 305 301 301 300 298 295 293 291 289 284 280 278 274 271 268 265 266 267 265 260 257 255 249 246 245 244 242 240 238 236 238 238 227
138 140 134 128 130 126 116 117 122 119 111 104 101 102 98 93 88 83 83 82 85 88 84 79 74 68 66 65 63 62 60 55 51 47 43 40 34 28 22 14 6 1 354 348 342 335 330 327 321 315 312 312 309 308 314 316 308 301 297 295 293 287 282 279 275 272 268 266 265 264 262 258 256 255 252 248 247 246 243 239 237 232 233 239 236
130 127 120 121 126 125 123 122 122 117 110 108 103 98 97 96 94 91 90 88 87 86 86 88 84 77 73 69 66 66 68 65 59 59 57 52 47 38 31 24 15 10 2 352 343 338 335 332 326 321 320 319 316 315 323 323 312 307 306 302 299 294 286 282 277 274 273 271 267 264 262 259 256 254 254 253 251 249 244 239 237 232 225 230 236
110 116 118 125 129 126 124 123 123 117 110 108 103 99 96 94 96 100 102 98 91 88 90 92 89 83 76 71 69 69 71 69 64 64 64 61 58 53 48 41 33 27 17 5 356 349 347 345 341 337 330 322 317 314 322 327 321 317 316 307 304 304 293 283 279 276 277 277 272 267 264 262 260 255 253 254 253 251 247 241 238 233 227 225 227
104 111 118 122 122 121 120 120 121 115 109 107 105 105 102 99 102 108 111 107 102 100 98 95 91 86 78 72 68 65 65 65 63 61 58 56 54 52 47 41 34 27 17 8 3 357 352 351 350 345 337 329 323 315 319 333 332 320 313 302 308 317 304 294 294 287 283 287 283 271 266 264 264 261 254 251 250 249 249 244 239 236 234 231 228
101 107 114 115 114 114 117 120 119 113 109 109 109 110 108 108 109 110 109 105 103 103 99 93 87 84 78 72 68 64 62 62 60 54 51 49 45 43 37 29 24 18 13 7 3 359 355 354 351 346 341 334 329 319 315 329 335 325 315 309 310 306 300 318 321 307 291 288 288 280 279 275 269 267 260 253 248 245 246 244 239 236 235 236 235
95 103 111 112 112 112 114 116 114 109 106 108 110 111 109 110 111 110 106 99 92 87 85 81 78 78 75 74 76 74 69 67 63 56 52 48 45 42 33 24 18 16 11 2 358 356 354 355 352 348 342 334 327 317 313 321 331 325 309 304 312 303 306 323 319 308 295 288 285 284 287 286 277 268 262 257 251 245 243 242 240 238 234 236 237
91 101 110 114 114 113 113 113 110 108 108 111 115 116 114 112 111 108 97 85 76 70 73 78 79 79 76 76 78 76 71 70 67 63 59 55 54 51 46 42 34 28 17 5 7 7 1 353 348 345 339 332 325 317 314 316 320 319 304 285 292 288 287 308 313 302 304 299 289 286 287 289 283 271 264 260 255 249 244 242 242 239 235 234 237
100 105 110 112 114 113 113 111 109 109 110 114 117 117 114 113 111 106 96 88 87 82 81 85 83 80 79 75 73 70 65 63 60 61 58 53 55 51 47 46 35 30 24 16 18 18 10 358 353 349 338 333 332 323 320 319 319 322 312 293 291 285 275 287 304 301 307 302 292 291 290 290 288 276 265 260 255 250 245 243 243 240 238 236 237
106 106 108 109 111 112 111 110 108 108 109 112 113 109 107 107 105 102 97 91 92 91 86 86 83 79 75 68 63 59 53 52 49 49 48 43 43 43 39 33 24 21 15 10 10 7 4 359 353 347 338 340 344 335 330 329 327 324 319 309 304 297 283 281 285 287 293 292 290 292 293 294 290 278 267 261 257 252 249 248 246 242 239 236 237
105 107 109 108 108 109 109 108 106 105 106 108 107 105 105 103 99 98 96 91 88 87 84 81 76 69 64 57 52 48 44 44 43 41 39 34 32 33 30 23 19 16 7 1 2 0 358 354 348 344 342 342 343 340 336 334 332 326 323 319 316 310 296 288 288 288 284 283 292 299 303 302 294 283 275 268 260 256 255 252 248 246 241 238 239
107 108 109 108 108 105 104 102 100 100 99 97 96 95 95 95 93 93 92 92 90 85 77 68 63 58 53 47 42 41 39 37 37 35 32 31 31 31 29 24 21 15 6 358 354 352 350 348 346 343 342 337 334 335 334 332 329 324 322 319 317 317 311 303 303 304 295 287 291 295 302 304 298 293 286 277 267 259 258 254 247 247 246 244 243
110 111 111 109 105 102 100 97 94 93 90 87 86 85 83 83 84 87 87 87 84 78 69 60 55 51 49 46 43 41 38 34 33 31 29 30 31 30 27 23 19 14 6 357 348 343 340 340 339 334 330 329 328 327 327 326 324 321 321 317 312 312 312 310 309 309 306 297 296 295 299 302 298 294 293 286 277 266 262 257 247 246 246 245 244